Wind_Speed
108 106 103 102 100 99 98 98 98 98 98 98 99 100 101 101 102 103 104 105 106 107 109 110 112 113 115 116 118 119 120 121 122 123 124 125 125 126 127 128 128 129 131 133 136 137 138 139 142 144 145 145 145 144 144 143 142 141 139 138 136 135 133 130 125 120 120 123 123 122 122 121 118 117 116 115 114 113 111 109 107 106 105 104 104
107 105 103 102 100 100 100 100 100 100 100 101 102 102 103 103 104 105 105 106 106 107 108 109 110 111 113 114 115 117 118 119 120 122 123 124 125 126 127 128 129 130 132 134 136 138 139 139 140 142 145 146 146 147 147 147 146 144 143 141 139 138 137 134 130 124 122 124 126 125 126 126 124 122 121 119 117 117 115 114 113 111 109 108 107
106 104 103 102 101 101 101 101 101 102 102 103 103 103 104 104 104 104 105 105 105 105 106 106 107 108 109 110 111 112 113 115 116 118 119 120 122 123 125 126 127 128 131 133 135 138 139 139 139 140 142 143 145 147 148 148 148 147 146 144 142 141 140 138 134 129 125 125 127 128 128 130 129 127 127 126 124 122 120 118 117 116 114 113 112
105 104 103 102 102 101 101 101 101 101 101 101 101 101 101 101 100 100 100 100 101 101 101 101 102 102 103 104 105 106 107 109 110 111 113 114 116 118 120 122 123 125 127 129 132 135 137 139 140 139 139 139 141 143 146 147 148 148 147 146 145 143 142 141 138 133 128 126 127 129 130 131 132 132 131 131 130 128 126 124 122 121 119 118 116
104 104 103 102 101 100 99 99 98 98 97 97 97 97 96 96 96 96 96 96 97 97 97 98 98 99 100 100 101 102 103 104 105 106 108 109 110 112 114 116 118 120 122 125 127 130 133 135 137 138 138 136 135 137 140 143 144 146 146 147 146 145 143 142 140 137 132 128 127 130 131 132 133 134 135 135 134 133 132 130 128 127 125 123 121
104 102 100 99 98 97 96 94 93 93 92 92 93 93 93 93 93 94 94 95 95 96 96 97 97 98 98 99 100 100 101 102 103 103 104 105 106 107 109 110 112 114 117 119 122 125 127 130 132 134 136 135 133 132 133 136 138 140 142 144 145 145 144 142 140 138 135 130 128 130 132 132 133 134 137 138 138 136 136 135 133 132 131 129 127
101 99 97 96 94 93 92 91 90 90 90 90 90 91 91 92 92 93 94 94 95 95 96 97 97 97 98 98 99 100 100 101 102 102 103 103 104 105 106 107 108 110 112 114 117 119 121 124 126 129 131 132 132 130 130 130 131 133 135 137 140 142 142 141 140 138 135 132 129 129 131 133 134 135 137 140 141 139 138 138 138 137 136 135 133
98 96 95 93 92 91 90 90 89 89 90 90 90 91 91 92 93 94 94 95 95 96 96 97 97 97 98 98 99 99 100 100 101 102 102 102 103 103 104 105 106 107 108 110 112 114 116 118 120 123 126 128 129 129 128 127 126 127 128 131 133 134 136 137 137 137 136 133 130 129 130 132 134 136 138 140 142 142 141 142 141 141 140 139 138
96 95 93 92 92 91 91 90 90 91 91 91 91 92 92 93 93 94 94 95 95 96 96 97 97 98 98 99 99 99 100 100 101 101 101 102 102 102 103 104 104 105 106 107 109 110 111 113 115 117 119 122 124 125 126 126 125 124 124 126 127 128 128 129 131 132 133 132 131 130 130 131 133 136 139 142 143 144 145 145 144 143 143 143 142
95 94 93 92 92 92 91 91 91 91 92 92 92 92 92 93 93 93 93 94 94 95 95 96 96 97 97 98 98 99 99 100 101 101 101 101 101 101 102 102 103 104 104 105 106 108 109 109 111 112 114 116 118 120 122 123 123 122 121 122 123 124 124 124 125 126 127 128 128 129 129 130 132 136 140 142 145 146 148 149 148 147 146 146 145
95 94 93 92 92 92 92 92 91 91 91 91 91 91 91 91 91 91 92 92 92 93 93 94 94 94 95 95 96 97 98 99 99 100 100 100 100 100 101 101 102 103 103 104 104 105 106 107 108 109 111 112 113 115 117 118 119 119 119 118 119 120 121 121 122 123 124 124 125 125 126 128 131 137 141 143 146 148 150 151 151 150 149 148 147
95 94 93 93 93 92 92 91 91 90 90 90 90 90 90 90 90 90 90 90 90 90 91 91 92 92 93 93 94 95 96 97 97 98 98 98 98 98 98 99 100 101 102 102 102 103 104 105 106 107 108 109 110 111 112 113 114 115 115 115 116 117 118 118 119 121 122 123 122 121 122 123 126 132 137 140 143 147 150 151 151 152 152 151 149
95 94 94 93 93 92 92 91 91 90 90 90 90 89 89 88 88 88 88 88 88 89 89 90 90 90 91 91 92 93 94 95 96 96 96 96 96 96 95 96 97 98 98 99 100 101 102 103 104 105 107 108 108 108 109 109 109 110 111 112 113 114 115 115 115 116 118 120 119 118 119 120 122 124 129 133 136 140 143 146 149 151 152 152 151
96 95 94 93 93 92 92 91 91 90 90 90 89 88 88 87 87 87 87 87 88 88 88 88 88 89 89 89 90 90 92 93 94 94 94 94 95 94 94 94 95 95 96 96 97 98 99 100 101 103 105 106 107 107 106 106 106 106 107 108 109 110 111 112 113 113 114 115 115 115 116 119 120 121 124 128 130 131 134 138 143 147 150 151 151
96 95 94 93 93 92 92 91 91 90 90 89 88 87 86 86 86 86 87 87 87 88 88 87 87 88 88 88 88 88 90 91 91 92 92 92 93 92 92 92 93 94 94 95 95 96 97 99 99 100 102 103 104 104 103 103 102 103 104 105 106 107 108 109 110 111 111 110 110 110 111 114 117 118 121 125 126 126 127 131 135 139 143 146 148
97 95 94 93 93 92 91 91 90 89 89 88 87 87 87 87 87 87 87 87 87 87 87 87 87 87 87 87 87 87 88 89 90 90 90 90 90 89 89 89 90 91 92 93 94 94 96 98 99 99 100 101 102 102 101 100 99 100 101 102 103 104 105 106 108 108 108 107 107 106 107 109 112 114 117 121 123 124 125 127 128 129 133 136 139
97 96 95 94 93 92 91 91 90 89 88 88 87 87 87 87 87 87 87 87 87 87 87 87 87 87 87 86 86 86 87 88 88 88 88 88 87 86 85 85 86 87 88 89 91 92 95 97 97 97 98 99 100 100 100 99 98 98 99 99 100 101 102 103 104 104 104 104 104 104 104 105 107 109 112 115 118 121 123 124 124 125 127 129 130
97 96 95 94 94 93 92 92 91 90 89 88 88 88 87 87 87 87 87 87 87 87 87 87 87 86 86 86 85 85 85 86 86 86 86 85 83 82 81 81 81 82 83 85 87 89 92 94 95 95 95 96 97 98 99 99 99 98 99 98 99 99 100 100 100 100 100 100 101 101 101 102 104 106 108 111 114 116 119 119 120 122 124 124 123
96 96 95 94 94 93 93 92 91 90 89 88 88 87 87 87 87 87 87 86 86 86 86 86 86 86 86 85 85 84 84 85 86 86 85 83 81 79 78 78 78 79 80 82 84 86 88 90 91 91 91 92 93 95 97 98 98 98 98 98 98 100 100 99 98 97 96 96 96 97 98 99 101 103 105 108 110 112 114 115 117 119 119 118 117
96 95 94 94 93 93 92 91 90 89 89 88 87 87 87 87 87 86 86 86 85 85 85 85 84 84 85 85 84 84 84 84 86 86 85 83 81 79 78 78 77 78 79 81 83 85 86 87 87 88 87 88 89 91 93 95 95 96 97 97 98 99 100 99 98 97 96 96 95 95 96 97 98 99 101 103 106 108 110 111 113 115 115 114 113
95 94 93 93 92 91 91 90 89 89 88 87 87 87 87 86 86 86 85 85 84 84 84 84 83 83 84 84 84 84 84 85 86 86 85 83 82 80 78 78 77 77 78 80 81 83 84 84 85 85 85 85 86 87 89 90 91 92 94 95 97 98 98 98 98 98 97 97 96 96 96 96 96 97 98 99 102 104 106 107 109 111 112 111 110
94 93 93 92 91 90 89 88 88 87 87 86 86 86 86 86 85 85 85 84 84 83 83 82 82 82 83 83 84 84 84 85 85 85 84 82 81 79 78 77 77 76 76 78 79 80 81 81 82 83 83 83 83 84 85 86 87 89 91 92 94 95 96 96 97 97 97 97 97 96 96 97 96 96 96 97 98 100 101 102 104 106 107 108 107
94 93 92 91 90 89 88 87 87 86 86 86 85 85 85 85 84 84 84 83 82 82 82 81 80 80 81 83 83 83 84 84 84 83 82 81 80 79 78 77 76 75 75 75 76 77 78 79 79 80 80 80 81 81 82 83 84 85 87 88 90 91 92 93 94 96 96 96 96 96 97 98 97 97 97 97 97 98 98 98 99 100 102 103 103
93 92 92 91 90 88 87 87 86 86 86 85 85 85 84 84 84 83 82 81 81 80 80 80 79 79 80 81 82 82 82 82 83 82 81 79 79 78 78 77 76 75 74 74 74 75 76 77 77 77 77 78 78 78 79 80 81 82 84 85 86 87 89 90 91 93 93 94 95 96 97 98 98 97 97 97 97 97 97 96 96 96 96 97 98
92 92 91 90 89 89 88 87 87 86 86 85 84 84 84 83 83 82 81 80 80 79 80 79 79 79 79 79 80 81 81 81 81 81 80 78 78 78 78 77 76 75 73 73 72 73 74 76 76 75 75 76 76 76 77 78 78 79 80 82 83 84 86 87 88 89 90 91 92 93 95 96 97 97 97 97 97 97 96 96 94 93 93 93 93
92 91 91 90 90 89 89 88 88 87 86 85 84 83 83 82 82 81 81 80 79 79 79 79 78 77 77 78 78 79 79 80 79 79 78 77 77 77 77 76 75 74 72 71 71 71 72 73 74 74 74 74 74 74 75 76 76 77 78 79 80 81 82 84 85 86 87 88 89 90 92 94 95 95 96 96 95 96 96 95 94 93 92 91 90
91 91 91 90 90 90 89 88 88 87 85 84 83 83 82 82 81 81 81 80 80 79 79 78 77 76 76 76 77 77 78 78 78 77 76 75 75 76 76 75 74 73 71 70 70 70 71 71 72 72 72 72 72 73 74 75 75 76 76 76 76 77 78 80 81 82 83 84 86 87 89 91 92 93 94 93 93 94 94 94 93 93 93 91 88
90 90 90 90 89 89 88 87 86 85 84 84 83 82 82 81 81 81 80 80 79 78 77 77 76 76 75 75 75 75 76 77 77 75 74 73 73 74 74 74 73 71 70 69 69 69 69 69 70 70 70 70 70 72 73 74 75 75 75 74 74 74 75 75 76 78 79 80 81 83 85 88 90 91 91 91 90 92 93 92 91 91 92 91 88
89 89 89 88 88 86 85 84 84 83 83 82 82 81 81 81 80 80 79 78 77 76 76 76 75 75 74 74 74 73 74 76 76 74 72 71 71 71 72 72 71 70 68 68 67 67 67 67 68 68 68 69 69 70 71 72 73 74 74 73 73 73 72 72 73 73 74 75 77 79 82 84 85 87 87 88 89 90 91 91 89 89 89 90 88
88 88 87 86 85 84 83 82 82 82 81 81 81 81 80 80 79 78 78 77 77 76 75 74 74 73 72 72 72 72 72 74 75 73 71 70 70 70 70 70 69 68 67 66 66 65 65 65 66 67 67 67 68 69 70 71 71 72 73 73 72 72 72 72 71 71 71 72 73 75 77 79 80 81 82 83 85 88 89 89 88 87 87 87 88
87 87 86 84 83 82 82 81 81 80 80 80 80 80 79 79 79 77 76 76 76 76 76 74 73 71 70 70 70 70 71 72 73 72 71 70 69 69 69 68 67 66 65 65 64 64 63 64 64 65 66 67 68 68 69 70 70 70 71 71 70 70 71 71 71 70 71 71 72 72 73 74 75 76 78 79 81 84 86 86 86 85 84 85 87
86 86 85 83 82 81 81 80 80 80 80 80 79 79 78 77 78 78 77 76 75 75 75 74 72 70 68 67 67 67 69 70 71 70 69 68 68 68 69 68 66 65 65 64 64 63 63 63 63 64 65 66 67 68 68 68 69 68 68 69 69 69 69 69 69 70 70 71 71 71 71 71 71 72 73 75 78 80 82 83 82 81 81 82 85
85 85 84 83 81 80 80 80 80 80 80 80 79 78 77 75 75 76 78 78 77 76 74 73 71 69 67 66 65 65 66 67 68 69 69 67 67 67 67 67 65 64 64 64 64 63 63 63 63 64 64 65 66 66 67 67 66 66 66 66 67 67 68 67 67 68 69 69 70 70 70 70 70 70 71 73 74 76 78 79 79 78 77 79 82
84 85 85 83 82 80 80 80 80 80 80 79 78 77 76 74 73 74 75 78 79 78 75 71 68 66 65 64 64 64 64 64 65 66 67 66 66 65 66 65 64 63 63 63 63 63 63 63 64 64 64 65 65 65 65 65 64 63 63 63 64 65 66 66 66 66 66 67 67 67 67 68 69 69 70 71 73 74 75 75 75 75 74 76 79
82 84 85 84 83 81 80 79 79 79 79 78 77 76 75 74 73 73 73 75 78 79 78 74 70 66 64 63 62 62 63 63 63 63 64 65 64 64 64 63 63 62 61 61 62 62 63 64 64 64 64 64 64 63 63 62 61 61 61 61 62 62 63 64 64 64 63 64 64 63 64 65 66 66 67 69 71 72 73 73 73 72 72 72 75
80 82 83 84 84 83 82 80 79 78 78 78 77 76 74 73 72 72 73 74 75 76 76 75 73 69 65 62 62 62 61 61 61 61 62 62 62 62 62 62 61 61 60 60 61 61 61 62 64 65 65 64 64 63 61 60 59 59 58 59 60 61 61 62 63 62 62 61 61 61 61 62 63 63 64 66 68 69 70 71 72 71 71 70 71
78 79 81 82 83 83 82 81 79 78 77 77 76 75 74 73 73 73 74 74 74 74 74 73 73 71 68 64 62 62 61 60 59 60 60 60 60 60 60 60 60 61 60 60 61 61 61 61 62 63 64 64 63 62 61 60 59 58 58 58 59 59 60 61 62 61 60 59 59 59 60 60 61 61 62 63 65 67 68 69 70 70 70 70 69
78 79 80 81 81 81 81 80 79 78 77 76 75 74 74 73 73 74 74 74 73 72 72 71 71 71 69 65 63 62 62 61 59 58 57 58 59 59 58 58 58 59 60 60 61 61 61 61 60 61 61 62 62 62 61 60 59 58 58 58 58 59 60 61 62 61 60 58 58 58 59 59 59 60 61 61 63 64 65 66 68 69 69 69 68
79 79 79 79 79 79 78 78 78 77 77 76 75 74 73 73 74 74 74 73 71 70 70 69 69 69 68 66 64 62 61 61 60 57 56 55 56 57 57 57 57 58 59 60 61 61 60 60 59 59 59 59 60 60 60 59 58 57 57 57 58 58 59 60 61 61 59 58 58 59 59 59 59 59 59 60 61 62 63 64 65 67 68 68 68
79 79 78 77 77 77 77 76 76 76 76 76 75 74 73 73 74 74 73 71 69 68 68 67 67 67 66 65 64 62 61 60 60 58 56 54 54 55 56 57 57 57 58 59 60 60 59 58 57 57 56 57 57 58 58 58 57 56 56 56 56 57 58 59 59 59 58 57 57 57 58 59 58 59 59 59 59 60 61 62 64 65 66 66 67
78 77 76 75 75 75 75 75 75 75 75 75 74 74 73 73 73 73 71 69 68 66 65 65 65 65 64 64 63 62 61 60 59 58 57 55 54 54 54 55 56 57 58 58 58 58 58 56 55 54 54 54 55 55 56 57 56 56 55 55 55 56 57 58 58 57 57 56 55 55 56 57 57 57 58 58 58 59 60 60 62 63 64 65 65
77 76 75 74 74 74 74 74 74 74 74 74 73 73 73 72 72 71 69 67 66 64 64 63 63 63 62 62 62 61 60 59 58 58 57 56 55 54 54 55 56 57 57 57 57 56 55 54 53 52 52 52 52 53 54 54 54 54 54 54 54 55 56 56 56 56 56 55 54 54 54 54 55 55 56 56 57 58 58 59 60 61 62 63 63
75 75 74 74 73 73 73 73 73 73 73 72 72 71 71 71 70 68 67 65 64 63 62 61 61 61 61 61 60 60 59 58 58 57 57 57 56 55 55 55 56 56 56 56 56 55 54 52 51 50 49 50 51 52 52 52 52 52 52 52 53 54 55 55 55 54 54 54 54 53 53 53 53 53 54 54 55 56 57 58 58 59 60 61 61
75 74 74 73 73 72 72 72 71 71 71 70 69 69 69 68 67 66 64 63 62 61 60 60 59 59 60 59 59 59 58 58 57 57 57 57 56 56 56 56 56 55 55 54 54 54 53 52 50 48 48 49 51 51 51 50 50 50 50 50 51 52 53 53 53 53 52 52 52 52 52 52 52 52 52 53 53 54 55 56 56 57 58 59 59
74 74 74 73 73 72 71 70 69 69 68 68 67 67 66 66 64 63 62 62 60 60 59 58 58 58 58 58 58 57 57 57 56 56 56 56 56 56 56 56 56 55 53 53 52 53 53 52 50 48 48 48 49 50 50 50 49 49 49 49 49 50 50 51 51 51 51 50 50 50 50 50 50 50 51 51 52 52 53 54 54 55 55 56 57
73 73 73 73 72 71 70 68 67 67 67 66 66 65 64 63 62 61 60 60 59 58 57 57 57 57 57 57 56 56 56 56 55 55 55 55 56 56 57 56 55 54 53 52 51 51 51 51 50 49 48 48 49 48 48 48 48 48 48 48 48 48 49 48 48 48 48 49 49 48 48 48 48 48 49 49 50 51 51 52 52 53 53 54 55
72 72 72 72 71 70 68 67 66 65 65 65 64 63 62 60 60 59 59 58 57 56 56 55 55 55 55 55 55 55 55 55 54 54 55 55 55 56 56 55 54 53 52 52 51 50 50 50 50 49 48 48 48 48 47 46 46 46 46 46 47 47 48 47 46 46 46 46 47 47 47 47 47 47 47 48 48 49 50 50 50 51 52 52 53
71 71 71 70 70 69 67 65 64 64 63 63 62 61 60 58 58 58 57 57 56 55 55 54 54 54 54 54 54 54 54 54 53 53 54 54 55 55 54 54 53 52 52 51 51 50 49 49 49 48 47 47 47 47 46 45 45 45 45 45 45 46 46 46 45 44 44 44 45 45 45 45 45 45 46 46 47 47 48 49 49 49 50 51 51
70 69 69 69 68 66 65 63 62 62 61 61 60 59 58 57 57 57 56 55 55 54 54 53 52 52 52 52 53 53 53 53 53 53 53 54 54 53 52 52 52 52 51 51 50 49 48 48 47 47 46 46 47 46 45 44 43 43 43 43 44 44 45 45 44 43 43 43 43 43 44 44 43 43 44 45 45 45 46 47 47 48 48 49 49
68 68 67 66 65 64 63 61 61 60 60 59 58 57 56 56 56 55 55 54 54 53 53 52 52 51 51 51 52 52 52 52 52 52 53 53 52 52 51 51 50 50 50 50 49 48 47 46 46 46 45 45 45 45 44 43 42 42 42 42 42 42 43 43 42 41 41 41 41 42 42 42 42 42 42 43 43 44 44 45 45 46 47 47 48
66 66 65 64 63 62 60 60 59 59 58 57 56 55 55 55 54 54 53 53 53 52 52 51 51 50 51 51 51 51 51 51 52 52 52 52 51 50 50 49 49 49 49 49 48 47 46 46 45 45 44 43 43 43 43 43 42 41 41 41 41 41 41 41 40 40 40 40 40 40 41 41 41 41 41 41 42 42 43 43 44 44 45 46 47
Wind_Direction
301 300 298 297 295 294 292 291 289 288 286 284 283 281 280 279 277 276 275 274 273 272 271 270 270 269 268 268 267 266 265 265 264 264 264 263 262 261 261 260 259 258 257 257 257 256 255 254 253 253 253 254 254 254 255 255 255 255 255 255 255 255 255 254 253 251 249 249 249 250 250 250 250 250 251 252 252 253 253 253 253 253 253 253 253
300 299 298 296 295 294 292 291 290 288 287 285 284 282 281 280 279 278 277 275 274 273 272 272 271 270 269 269 268 267 267 266 265 265 264 264 263 262 262 261 260 259 258 258 258 258 258 256 255 254 254 254 254 254 254 255 255 256 256 256 255 255 255 255 254 253 251 250 249 249 250 251 250 250 251 251 251 252 252 252 253 253 253 253 253
300 298 297 296 294 293 292 290 289 287 286 285 283 282 281 280 279 279 278 277 276 275 274 273 272 272 271 270 269 269 268 267 267 266 265 265 264 263 263 262 261 260 259 259 259 259 260 259 258 257 256 255 255 255 255 255 255 256 256 256 256 256 256 256 255 254 252 251 250 250 250 250 251 251 251 251 251 251 251 252 252 252 252 253 253
299 298 296 295 294 292 291 289 288 286 285 284 283 283 282 281 280 279 278 278 277 276 275 275 274 273 272 271 271 270 269 268 268 267 266 266 265 264 264 263 262 262 261 260 260 260 260 260 261 260 260 258 257 256 256 256 256 256 257 257 257 257 256 256 256 255 254 252 251 250 250 250 251 251 251 252 252 252 252 251 252 252 252 252 252
298 297 295 294 293 291 290 289 287 287 286 285 284 283 282 281 281 280 279 278 278 277 276 275 275 274 273 272 272 271 271 270 269 269 268 267 266 265 264 264 263 262 262 261 260 260 260 260 261 262 262 261 260 259 258 258 257 257 257 257 258 258 258 257 257 257 256 254 253 252 251 251 251 251 251 252 252 252 252 252 252 252 252 252 252
297 296 295 294 292 291 290 289 288 287 286 284 283 282 282 281 280 280 279 278 278 277 276 276 275 275 274 274 273 273 272 271 270 270 269 268 267 266 266 265 264 263 263 262 261 260 260 260 260 261 262 262 262 261 260 259 259 259 258 258 258 258 259 258 258 258 257 256 254 253 253 252 252 251 251 252 252 252 252 252 252 252 252 252 252
297 296 295 294 292 291 290 289 288 286 285 284 283 282 281 281 280 280 279 279 278 278 277 277 276 276 275 275 274 273 273 272 271 271 270 269 268 268 267 266 265 265 264 263 262 262 261 260 260 260 261 262 262 262 262 261 260 259 259 259 259 259 259 259 259 259 258 257 256 255 254 253 253 252 252 252 252 252 252 252 252 252 253 252 252
297 296 295 293 292 291 290 289 287 286 285 284 283 282 282 281 281 280 280 279 279 279 278 278 277 277 276 275 274 274 273 272 272 271 270 270 269 268 268 267 267 266 265 264 264 263 262 262 261 261 261 261 262 262 262 262 261 260 260 259 259 259 259 259 259 259 259 258 257 256 255 254 254 253 253 253 252 253 253 252 252 252 253 253 253
296 295 294 293 292 291 290 288 287 286 285 284 284 283 282 282 281 281 280 280 280 279 279 278 278 277 276 275 275 274 273 273 272 271 271 270 269 269 268 268 267 266 266 265 265 264 263 263 262 262 261 261 262 262 262 262 262 261 260 260 260 259 259 259 259 259 259 259 258 257 256 255 255 254 253 253 253 253 253 253 253 252 252 253 253
295 294 294 293 291 290 289 288 287 286 285 285 284 283 283 282 281 281 280 280 279 279 278 278 277 276 276 275 275 274 273 272 272 271 270 270 269 269 269 268 267 267 266 266 265 265 265 264 263 263 262 262 262 262 262 262 262 262 261 260 260 260 260 259 259 259 259 258 258 257 257 256 255 255 254 254 253 253 253 253 253 253 252 252 252
295 294 293 292 290 289 288 287 286 286 285 285 284 283 283 282 282 281 281 280 280 279 278 278 277 277 276 275 275 274 274 273 272 271 271 270 270 269 269 269 268 268 267 267 266 266 265 265 264 264 263 262 262 262 262 262 262 262 262 261 261 260 260 259 259 259 258 258 257 257 256 256 255 255 255 254 254 253 253 253 253 253 253 253 252
294 293 292 291 290 289 288 288 287 286 286 285 284 284 283 283 283 282 282 281 280 279 279 278 278 277 277 276 276 275 275 274 274 273 272 272 271 270 269 269 268 268 268 268 267 267 266 266 266 265 264 264 263 262 262 261 262 262 262 262 261 261 260 259 258 258 258 257 257 256 256 256 255 255 255 254 254 254 254 253 253 253 253 253 253
294 293 292 291 291 290 290 289 289 288 287 286 286 285 285 284 284 283 282 281 281 280 279 278 278 277 277 276 276 276 275 275 274 274 273 273 272 272 271 270 270 269 269 268 268 268 267 267 266 266 265 265 264 263 263 262 262 262 262 261 261 261 261 260 259 258 257 257 257 256 256 255 255 254 254 254 254 254 254 254 254 254 254 254 254
294 294 293 293 292 292 291 290 290 289 288 288 287 287 286 286 285 284 283 283 282 281 280 280 279 278 278 277 276 276 275 275 274 274 273 273 272 272 272 271 271 270 270 269 269 268 268 267 266 266 266 265 265 265 264 264 263 263 262 262 261 261 261 260 260 259 258 257 256 256 255 255 254 254 254 254 254 253 253 253 253 253 253 254 254
295 295 294 294 293 292 292 291 290 290 289 288 288 288 287 287 286 285 285 284 283 283 282 282 281 280 279 278 278 277 276 275 275 274 273 272 272 272 272 271 271 271 270 270 269 269 268 268 267 266 266 266 266 265 265 264 264 264 263 262 261 261 260 260 260 259 259 258 257 256 255 254 254 254 253 253 254 253 253 253 252 252 253 253 253
296 296 295 294 293 293 292 291 290 290 290 289 289 289 288 288 287 287 286 285 285 284 284 283 282 282 281 280 279 279 278 276 275 274 273 272 272 271 271 271 270 270 270 269 269 268 268 267 267 267 267 267 267 266 266 265 264 264 263 262 262 261 261 260 260 259 259 259 258 257 256 254 254 253 253 253 253 253 253 252 252 252 252 252 252
297 296 296 295 294 293 292 292 291 291 291 290 290 289 289 288 288 287 287 286 286 286 285 285 284 283 283 282 281 280 279 278 277 275 274 273 272 271 271 270 269 269 268 268 268 267 266 266 266 266 266 266 266 267 267 266 265 264 264 263 262 262 261 260 260 260 259 259 258 258 257 255 255 254 253 253 253 253 253 253 252 252 251 251 250
297 296 296 295 294 294 293 292 292 291 291 291 290 290 290 289 289 288 288 288 287 287 286 286 285 285 284 283 282 282 281 280 279 278 276 275 274 273 272 271 270 269 268 268 267 266 265 265 265 265 264 265 265 265 266 266 266 265 265 264 264 263 262 261 261 260 260 259 259 258 257 256 255 254 254 253 252 252 253 253 253 252 251 251 250
297 296 295 295 294 293 293 292 292 292 291 291 291 290 290 290 289 289 288 288 288 287 287 287 286 286 285 285 284 283 282 282 281 280 279 278 276 275 274 273 272 271 270 269 268 267 266 265 265 264 264 264 264 264 264 264 264 265 264 264 264 264 263 263 262 261 261 260 259 258 257 256 255 254 254 253 253 252 252 252 252 253 252 252 251
296 295 295 294 293 292 292 292 292 292 292 292 291 291 290 290 290 289 289 288 288 288 287 287 287 286 286 286 285 284 283 283 282 281 281 280 279 278 277 276 275 274 273 272 270 269 268 267 266 265 264 263 263 263 263 263 263 263 263 263 263 263 263 263 263 263 262 261 260 259 257 256 255 254 254 253 253 252 252 252 252 252 252 252 251
295 294 293 293 292 292 292 292 292 292 292 292 291 291 291 290 290 290 289 289 289 288 288 288 287 287 286 286 285 285 284 283 283 283 282 282 281 280 279 278 276 275 274 273 272 271 270 269 269 267 266 264 263 262 262 262 262 262 262 262 262 262 262 263 263 262 262 261 260 260 259 257 256 255 254 253 253 252 252 251 251 252 252 252 251
294 293 293 292 292 292 292 292 292 292 292 292 291 291 291 290 290 290 289 289 289 289 288 288 288 287 287 286 286 285 285 284 284 283 283 283 282 281 280 279 277 276 275 274 273 273 272 271 271 270 269 267 265 264 263 262 261 261 261 261 261 261 261 261 261 261 261 261 261 260 260 259 258 257 256 254 253 253 252 251 251 251 251 251 251
294 294 293 293 293 293 293 293 292 292 292 291 291 291 290 290 290 290 290 289 289 289 288 288 288 287 287 287 286 286 285 285 284 284 283 283 283 282 281 280 278 277 276 275 275 274 274 273 272 271 270 269 267 266 265 263 262 261 260 260 260 260 260 260 260 260 260 260 260 260 260 259 258 258 257 256 255 254 253 252 251 250 250 250 250
294 294 294 293 293 293 293 293 293 292 292 291 291 291 291 291 291 290 290 290 289 289 288 288 288 287 287 287 286 285 285 284 284 284 283 283 283 282 281 280 279 278 277 276 276 275 275 274 272 271 271 270 269 267 266 265 263 262 261 260 259 259 259 259 258 258 259 259 259 259 259 259 259 258 258 257 256 256 255 254 252 251 250 249 249
295 294 294 294 294 294 294 293 293 293 292 292 292 292 292 292 291 291 290 290 290 289 289 288 288 288 287 286 286 285 284 284 284 283 283 283 282 282 281 280 279 278 277 276 276 275 275 274 273 273 272 271 270 269 268 266 265 263 262 261 260 259 258 258 258 258 258 258 258 258 258 259 259 258 258 257 257 257 256 256 254 253 252 250 248
294 294 294 294 294 295 294 294 294 294 293 293 293 293 292 292 291 291 291 290 290 290 289 289 288 288 287 286 285 285 284 284 283 283 283 283 282 281 280 280 279 278 277 277 276 275 274 274 274 273 273 272 271 270 269 268 266 265 263 261 260 260 259 258 258 258 257 257 258 258 258 258 258 258 258 258 257 257 257 257 256 255 254 252 249
294 294 294 294 295 294 294 294 294 294 294 293 293 293 292 292 292 291 291 291 291 290 290 289 288 287 287 286 285 285 284 284 283 283 283 282 282 281 280 280 279 278 278 277 276 275 274 274 273 273 273 272 272 271 270 269 268 266 265 263 262 260 260 259 258 258 257 257 257 257 257 257 258 258 258 258 258 258 257 257 256 256 255 254 251
294 294 294 294 294 294 293 293 293 293 293 293 293 292 292 292 292 291 291 291 290 290 289 288 288 287 286 286 285 285 285 284 284 283 283 283 282 282 281 280 280 280 279 278 277 276 275 274 274 273 272 272 271 271 270 270 269 268 267 265 264 262 261 260 259 258 258 257 257 257 256 256 257 257 258 258 258 258 258 257 256 255 255 254 253
293 293 293 293 293 293 293 293 293 293 292 292 292 292 292 291 291 291 291 290 290 289 288 287 287 287 287 286 286 286 286 286 285 285 284 283 283 282 282 281 281 281 280 279 278 277 276 275 274 273 273 272 270 269 269 269 269 269 268 268 267 266 264 262 260 259 258 258 257 257 257 257 256 257 257 257 257 257 257 257 256 255 254 254 253
293 292 292 292 292 292 292 292 292 292 291 291 291 291 292 292 291 291 291 290 290 288 287 287 287 287 287 288 288 288 287 287 287 286 286 285 284 283 282 281 281 281 281 280 279 278 277 276 275 274 273 272 271 270 269 268 267 268 268 268 268 268 267 266 264 263 261 259 258 257 257 257 257 257 257 256 256 256 256 256 256 255 254 254 253
292 292 292 292 292 292 292 292 292 291 291 291 292 292 292 292 292 292 291 290 290 289 289 288 288 288 288 288 289 289 288 288 287 287 287 286 285 284 283 282 282 281 281 280 279 278 277 276 275 274 273 272 271 271 270 269 268 268 268 268 267 267 267 267 267 266 265 263 261 259 258 257 257 257 257 256 256 256 256 256 255 254 254 253 253
292 292 292 292 292 292 292 292 292 292 292 292 292 293 293 293 293 293 292 291 290 289 289 289 289 290 290 289 289 289 289 288 287 287 286 286 285 285 284 283 283 282 281 281 279 279 277 276 275 274 273 273 272 271 271 270 270 270 269 269 268 267 266 266 265 265 264 264 263 263 261 260 258 257 256 256 256 256 256 256 255 254 253 252 252
292 292 292 292 293 293 293 293 293 293 293 293 293 293 294 294 294 294 293 293 291 290 290 290 291 291 291 291 290 289 288 287 287 286 286 286 285 284 284 283 283 283 282 282 281 280 279 277 276 275 274 273 273 272 272 271 271 271 270 270 269 269 267 266 265 264 263 263 262 262 262 262 261 260 258 257 256 256 255 255 254 253 252 251 250
293 293 293 293 293 293 293 293 293 293 293 293 294 294 294 294 293 293 293 293 293 292 292 291 292 292 292 291 290 289 288 287 286 286 286 285 285 284 283 283 283 282 282 282 281 280 279 278 277 276 275 274 274 274 274 273 273 273 272 272 271 270 269 268 266 265 264 263 262 261 261 261 260 260 259 258 258 257 256 255 254 253 251 249 249
293 293 293 293 293 293 293 293 294 294 294 294 294 294 294 294 293 293 293 293 293 293 294 294 294 293 292 291 290 289 288 287 286 285 285 284 284 284 283 283 282 282 281 280 280 280 279 279 278 277 276 275 275 275 275 275 274 274 274 273 272 271 271 270 269 267 266 264 263 262 261 260 259 259 258 258 257 257 257 256 255 254 251 249 247
292 292 292 293 293 293 294 294 294 294 294 294 294 294 294 294 294 293 293 292 292 293 294 295 295 294 293 292 291 289 288 287 286 285 285 284 283 283 283 283 282 281 280 279 278 278 277 277 278 278 278 277 277 277 277 277 276 275 274 274 273 272 272 271 270 269 268 266 266 264 263 262 261 259 258 258 257 257 256 256 256 255 253 251 248
291 291 291 291 292 293 293 294 294 294 294 294 294 294 295 295 294 294 293 292 293 293 294 294 294 294 293 292 291 290 289 287 286 285 285 284 284 283 283 283 282 281 280 279 278 277 277 276 276 277 278 278 279 279 279 279 278 277 276 275 274 273 273 272 271 270 269 268 267 266 265 264 262 261 260 259 258 257 256 256 256 255 254 253 251
291 290 290 290 291 291 292 293 293 293 293 294 294 295 295 295 294 293 292 292 293 293 294 294 293 293 293 293 292 290 289 288 287 286 285 285 284 284 283 282 281 281 280 279 278 277 276 276 276 276 277 277 278 278 278 278 278 277 276 275 274 273 272 272 271 271 271 270 269 268 266 265 263 262 261 260 259 258 257 256 256 255 255 254 253
290 290 290 290 291 291 291 292 292 293 294 294 294 295 295 294 293 292 292 292 293 293 293 293 293 292 292 292 291 290 289 288 288 287 286 285 285 284 284 282 281 280 279 279 278 277 277 276 276 276 277 277 277 277 277 277 277 276 275 274 273 272 272 271 271 271 270 270 269 269 268 267 265 264 262 261 259 258 258 257 256 256 255 255 254
290 290 291 291 291 291 291 291 292 293 293 293 294 294 294 293 292 292 291 292 292 292 292 292 292 291 291 291 291 290 289 289 288 288 287 286 285 284 283 283 282 281 279 279 278 278 278 278 278 278 278 278 278 278 278 277 277 276 275 274 273 273 272 271 270 270 270 269 268 267 267 266 266 265 263 262 260 259 258 257 256 256 255 255 254
291 291 292 291 291 291 291 292 292 293 293 293 293 293 292 292 291 291 291 292 292 292 292 291 291 291 291 290 290 290 289 289 289 288 288 287 285 284 283 282 281 280 279 278 278 278 279 279 279 279 278 278 277 277 277 277 277 276 275 275 274 273 272 272 271 271 270 269 267 266 266 265 265 264 263 262 261 260 258 257 256 256 255 255 255
292 292 292 292 292 292 292 292 292 292 292 292 292 292 291 291 291 291 291 292 292 291 291 290 290 290 290 290 290 290 289 289 289 289 288 287 286 285 283 282 280 280 279 279 279 279 279 279 279 279 278 277 276 276 275 275 275 275 275 274 274 273 272 272 272 272 271 270 269 267 266 265 264 263 262 261 260 259 258 257 256 256 255 255 255
293 293 293 293 293 292 292 292 291 291 291 291 291 290 290 290 290 291 291 291 291 291 290 290 290 290 289 289 289 289 289 289 289 289 288 287 286 285 284 282 281 281 281 281 281 281 281 280 279 279 278 278 277 276 275 274 274 274 274 274 273 273 273 272 272 271 271 270 269 268 266 265 264 263 262 260 259 258 258 257 256 255 255 255 255
294 294 293 293 293 292 291 291 291 291 291 290 290 290 289 289 290 291 291 291 290 290 290 289 289 289 289 289 289 289 289 289 289 288 288 287 286 286 284 283 282 282 282 283 284 284 283 283 282 280 280 279 278 278 277 276 276 275 274 273 273 273 273 273 272 271 270 269 269 268 267 265 264 263 262 260 259 258 257 256 255 255 254 254 254
294 294 293 293 292 291 291 291 291 291 290 290 289 289 289 289 290 290 290 290 290 289 289 289 289 288 288 288 288 288 288 288 288 287 287 286 286 285 284 284 284 284 284 284 284 284 284 284 283 282 281 280 280 279 279 279 278 277 276 275 274 273 272 272 272 272 271 270 269 268 267 265 264 263 261 260 259 258 257 256 255 254 254 254 254
293 293 292 292 291 291 291 291 291 291 290 289 289 289 289 289 290 290 289 289 289 289 289 288 288 288 288 287 288 287 287 287 286 286 286 285 285 284 284 284 285 286 285 285 285 284 284 284 284 283 283 282 281 280 280 280 280 279 278 277 276 274 273 272 271 271 270 270 269 268 267 266 264 263 262 260 259 258 257 256 255 254 253 253 252
292 292 291 291 291 291 291 291 291 290 290 289 289 289 289 289 289 289 289 288 288 288 288 288 287 287 287 287 286 286 286 285 285 284 284 284 283 283 284 285 286 286 286 285 284 284 284 283 284 284 283 283 282 281 281 281 280 279 278 277 276 276 275 273 272 271 270 270 269 268 267 266 265 263 262 261 260 259 258 257 256 254 253 252 252
291 291 291 291 290 290 291 291 290 290 289 289 288 289 289 289 289 288 288 288 288 288 287 287 287 286 286 286 285 285 284 284 283 283 283 282 282 283 284 285 285 285 285 284 284 284 284 284 284 284 284 283 283 282 282 281 280 279 278 277 276 276 275 275 274 273 272 271 269 269 268 267 265 264 263 262 261 260 259 258 256 255 254 253 252
290 290 290 290 290 290 290 290 289 289 288 288 288 289 289 289 288 288 288 288 287 287 287 287 286 286 285 285 284 284 283 283 283 282 282 281 282 283 284 284 284 284 283 283 283 284 284 284 284 284 284 283 283 283 282 281 280 279 278 277 277 276 276 276 275 274 273 272 271 270 269 268 267 265 264 263 261 260 259 258 257 256 254 253 252
289 289 289 289 289 289 289 289 289 288 288 288 289 289 288 288 287 287 287 287 287 287 287 286 286 285 284 283 283 283 283 282 282 281 281 281 282 283 283 283 283 283 283 283 283 284 284 284 284 284 284 284 283 283 282 282 281 280 279 278 277 277 276 276 276 275 274 273 272 271 270 269 268 267 265 263 262 261 260 259 257 256 255 253 252
289 289 289 289 289 289 289 289 289 288 288 288 288 288 287 287 287 287 287 287 286 286 286 285 285 284 283 283 282 282 282 282 281 281 281 282 282 282 283 283 283 283 283 284 284 285 285 285 284 285 284 284 283 283 283 282 281 280 279 279 278 278 277 277 277 276 275 274 273 272 271 271 270 268 266 265 263 262 261 259 258 256 255 253 252
Height
10422 10419 10415 10412 10409 10407 10404 10401 10398 10396 10393 10390 10387 10385 10382 10380 10378 10376 10374 10372 10370 10367 10365 10362 10359 10357 10355 10353 10352 10351 10350 10349 10349 10349 10348 10347 10347 10347 10348 10349 10350 10351 10351 10351 10351 10353 10358 10361 10362 10362 10363 10367 10370 10371 10373 10375 10377 10383 10388 10393 10399 10404 10410 10417 10430 10451 10457 10450 10451 10454 10449 10450 10457 10457 10455 10459 10462 10464 10471 10477 10481 10485 10488 10490 10493
10407 10403 10400 10396 10393 10390 10387 10384 10381 10378 10374 10371 10368 10365 10362 10359 10357 10354 10352 10350 10348 10346 10343 10341 10339 10337 10335 10333 10332 10331 10330 10329 10328 10328 10328 10327 10327 10326 10327 10329 10330 10330 10331 10330 10330 10330 10333 10338 10340 10341 10342 10346 10350 10351 10352 10354 10356 10361 10366 10371 10378 10383 10387 10393 10404 10423 10439 10439 10436 10439 10438 10433 10439 10443 10441 10443 10448 10448 10453 10459 10463 10468 10472 10475 10478
10391 10387 10384 10381 10378 10374 10370 10367 10363 10359 10355 10351 10348 10345 10342 10340 10337 10334 10332 10329 10327 10325 10323 10321 10318 10317 10315 10313 10312 10311 10310 10309 10308 10308 10308 10308 10308 10307 10307 10308 10310 10311 10311 10311 10310 10309 10311 10314 10316 10318 10321 10325 10329 10330 10331 10334 10336 10340 10345 10349 10354 10361 10365 10368 10379 10395 10413 10422 10421 10424 10426 10420 10421 10427 10426 10426 10432 10434 10437 10441 10444 10450 10456 10459 10463
10375 10371 10367 10364 10361 10357 10353 10349 10345 10341 10337 10333 10330 10326 10323 10321 10318 10315 10313 10310 10307 10305 10303 10301 10299 10297 10296 10294 10292 10291 10290 10289 10289 10288 10288 10288 10289 10289 10289 10288 10289 10291 10292 10292 10292 10291 10291 10293 10294 10294 10298 10304 10309 10310 10310 10314 10317 10320 10325 10329 10331 10337 10343 10346 10354 10367 10384 10398 10404 10405 10408 10408 10407 10410 10410 10410 10414 10417 10420 10425 10428 10431 10437 10441 10446
10359 10354 10351 10347 10343 10339 10335 10331 10327 10323 10320 10316 10312 10309 10306 10303 10300 10297 10295 10292 10290 10287 10285 10283 10281 10279 10277 10276 10274 10273 10272 10271 10270 10269 10269 10269 10270 10270 10270 10270 10269 10270 10271 10271 10272 10272 10273 10274 10274 10273 10275 10281 10288 10290 10290 10293 10297 10300 10304 10309 10310 10313 10320 10325 10331 10341 10354 10371 10384 10385 10387 10392 10394 10394 10393 10393 10396 10399 10403 10408 10412 10414 10419 10423 10427
10342 10338 10334 10331 10326 10322 10318 10315 10312 10308 10304 10300 10297 10294 10291 10288 10284 10281 10278 10276 10273 10271 10268 10266 10264 10262 10261 10259 10257 10256 10254 10253 10252 10252 10251 10251 10251 10251 10251 10251 10251 10251 10251 10251 10251 10252 10253 10255 10256 10255 10256 10259 10264 10269 10270 10272 10276 10280 10284 10287 10289 10291 10297 10304 10310 10316 10328 10344 10359 10365 10367 10371 10375 10378 10378 10374 10375 10382 10386 10389 10393 10396 10399 10403 10407
10325 10321 10318 10314 10309 10306 10302 10300 10296 10293 10289 10285 10282 10279 10276 10273 10269 10266 10263 10260 10258 10255 10253 10250 10249 10247 10245 10243 10241 10240 10238 10236 10235 10234 10234 10234 10233 10233 10233 10233 10234 10234 10233 10232 10231 10232 10234 10236 10237 10238 10238 10240 10243 10246 10249 10251 10254 10259 10263 10265 10268 10270 10275 10283 10288 10293 10302 10316 10332 10343 10347 10350 10353 10359 10362 10356 10354 10363 10370 10370 10372 10376 10379 10384 10390
10309 10304 10301 10297 10293 10289 10286 10283 10280 10276 10273 10269 10266 10263 10260 10257 10254 10250 10248 10245 10243 10240 10238 10235 10233 10231 10229 10227 10225 10223 10221 10219 10218 10217 10217 10217 10216 10216 10216 10216 10216 10217 10216 10215 10214 10214 10215 10217 10219 10220 10220 10221 10224 10226 10228 10230 10233 10239 10243 10244 10246 10251 10256 10262 10267 10271 10278 10289 10303 10316 10324 10329 10332 10337 10342 10339 10336 10344 10350 10347 10350 10358 10361 10363 10370
10294 10289 10286 10282 10277 10274 10270 10267 10264 10260 10257 10254 10251 10248 10245 10241 10238 10236 10233 10231 10228 10226 10223 10220 10217 10215 10212 10210 10208 10207 10205 10203 10201 10200 10200 10200 10200 10199 10199 10199 10198 10198 10198 10197 10196 10196 10197 10199 10200 10201 10202 10203 10205 10206 10208 10210 10212 10218 10223 10224 10224 10230 10236 10241 10247 10251 10256 10264 10276 10289 10297 10305 10311 10314 10318 10321 10320 10324 10327 10323 10327 10340 10343 10340 10347
10279 10275 10271 10267 10263 10259 10255 10252 10249 10245 10242 10239 10236 10233 10229 10227 10224 10221 10219 10217 10214 10211 10208 10205 10202 10200 10197 10195 10192 10190 10188 10186 10184 10183 10183 10183 10183 10183 10183 10182 10181 10180 10181 10181 10180 10179 10179 10181 10182 10182 10184 10185 10186 10187 10189 10190 10192 10196 10202 10205 10205 10210 10216 10221 10226 10231 10235 10241 10251 10262 10270 10279 10288 10290 10292 10299 10301 10301 10303 10301 10303 10314 10320 10318 10325
10265 10261 10257 10252 10248 10244 10240 10237 10234 10231 10228 10225 10221 10218 10215 10212 10210 10207 10204 10201 10199 10196 10192 10189 10187 10184 10182 10180 10177 10174 10172 10169 10167 10167 10166 10166 10168 10168 10168 10166 10164 10163 10164 10164 10165 10164 10162 10163 10164 10164 10165 10167 10168 10169 10170 10171 10173 10176 10181 10186 10188 10190 10195 10201 10206 10210 10213 10218 10228 10238 10245 10255 10264 10265 10264 10272 10275 10273 10276 10279 10280 10288 10296 10298 10305
10250 10246 10242 10237 10233 10229 10225 10222 10219 10216 10213 10209 10206 10203 10200 10198 10195 10192 10189 10186 10183 10180 10177 10174 10171 10169 10167 10164 10162 10159 10156 10153 10151 10150 10150 10150 10151 10152 10153 10152 10150 10148 10148 10148 10149 10149 10148 10147 10147 10147 10147 10147 10148 10150 10152 10153 10156 10158 10162 10166 10169 10171 10174 10179 10184 10189 10191 10196 10205 10216 10224 10231 10238 10240 10239 10243 10246 10246 10249 10257 10261 10266 10273 10276 10284
10235 10231 10226 10221 10217 10213 10209 10206 10203 10200 10197 10193 10190 10187 10184 10182 10179 10176 10173 10170 10167 10164 10161 10159 10157 10154 10152 10150 10148 10145 10141 10138 10136 10135 10135 10135 10134 10136 10137 10136 10135 10134 10134 10134 10134 10133 10133 10132 10132 10130 10128 10127 10128 10131 10134 10136 10140 10143 10146 10149 10150 10152 10154 10157 10162 10167 10171 10176 10184 10196 10205 10207 10210 10216 10218 10216 10217 10220 10226 10235 10241 10244 10250 10256 10264
10219 10215 10210 10206 10202 10197 10193 10190 10186 10183 10180 10177 10174 10171 10169 10166 10163 10160 10157 10154 10151 10148 10145 10143 10141 10139 10137 10135 10133 10130 10126 10123 10121 10120 10120 10119 10119 10120 10121 10121 10120 10120 10119 10118 10118 10118 10116 10116 10115 10114 10111 10110 10110 10112 10116 10120 10124 10127 10129 10131 10133 10134 10135 10138 10141 10145 10150 10156 10164 10175 10183 10183 10185 10194 10197 10192 10192 10198 10204 10211 10216 10219 10225 10234 10243
10202 10198 10194 10190 10186 10182 10178 10174 10171 10168 10164 10161 10159 10156 10153 10150 10147 10144 10142 10139 10135 10132 10130 10128 10126 10123 10121 10120 10118 10115 10111 10108 10106 10105 10104 10104 10104 10105 10107 10107 10106 10105 10104 10102 10103 10102 10100 10099 10098 10097 10095 10094 10094 10095 10099 10104 10108 10110 10111 10112 10113 10115 10117 10119 10121 10124 10130 10136 10143 10154 10162 10162 10164 10170 10174 10172 10172 10176 10181 10184 10189 10195 10201 10209 10220
10185 10181 10178 10174 10171 10167 10163 10160 10156 10153 10150 10147 10144 10142 10138 10135 10132 10130 10127 10124 10120 10117 10115 10113 10110 10108 10105 10104 10103 10100 10096 10092 10090 10089 10088 10088 10090 10092 10093 10094 10092 10090 10088 10087 10088 10087 10084 10081 10081 10081 10081 10080 10079 10079 10083 10088 10092 10093 10093 10093 10094 10096 10099 10100 10102 10106 10112 10118 10124 10133 10140 10142 10144 10147 10151 10152 10152 10154 10155 10158 10167 10175 10179 10185 10196
10169 10166 10162 10158 10154 10151 10148 10144 10141 10138 10135 10132 10129 10127 10123 10120 10118 10116 10113 10109 10106 10103 10100 10098 10095 10093 10090 10088 10087 10085 10081 10076 10074 10073 10071 10072 10075 10078 10079 10080 10078 10076 10074 10073 10072 10070 10066 10064 10064 10066 10067 10066 10065 10065 10066 10070 10074 10076 10076 10076 10077 10079 10080 10081 10084 10089 10095 10100 10106 10111 10117 10122 10124 10126 10129 10131 10131 10132 10131 10136 10147 10154 10154 10160 10171
10156 10151 10147 10143 10139 10135 10132 10129 10126 10123 10121 10118 10115 10112 10109 10106 10104 10101 10098 10096 10092 10088 10085 10083 10080 10077 10075 10073 10071 10069 10066 10061 10057 10056 10055 10056 10060 10063 10064 10064 10063 10061 10060 10058 10055 10052 10049 10047 10048 10051 10054 10053 10052 10052 10052 10053 10057 10059 10059 10061 10062 10062 10062 10063 10067 10073 10078 10083 10087 10092 10097 10101 10104 10106 10108 10108 10110 10111 10111 10117 10127 10127 10127 10138 10152
10142 10137 10133 10129 10124 10121 10117 10114 10112 10109 10107 10104 10101 10098 10095 10092 10089 10087 10084 10082 10079 10074 10071 10069 10066 10062 10059 10057 10055 10053 10051 10046 10042 10040 10039 10041 10044 10047 10049 10049 10047 10046 10044 10042 10038 10035 10033 10032 10032 10035 10039 10040 10039 10039 10038 10038 10041 10043 10044 10046 10046 10045 10044 10047 10052 10057 10061 10065 10070 10074 10077 10080 10082 10085 10086 10087 10089 10091 10092 10099 10105 10104 10107 10120 10133
10129 10124 10119 10115 10110 10107 10104 10101 10099 10096 10093 10091 10087 10084 10081 10078 10075 10073 10070 10067 10065 10061 10058 10055 10053 10049 10044 10041 10039 10037 10035 10032 10027 10024 10024 10026 10029 10032 10033 10033 10032 10031 10028 10025 10022 10019 10018 10018 10018 10020 10023 10025 10025 10024 10024 10024 10027 10029 10029 10030 10030 10029 10028 10032 10037 10041 10044 10047 10051 10054 10056 10058 10061 10064 10067 10068 10070 10072 10074 10080 10085 10086 10090 10101 10112
10115 10110 10106 10102 10098 10095 10092 10089 10086 10083 10080 10077 10074 10070 10067 10064 10062 10059 10056 10054 10051 10048 10045 10042 10040 10037 10031 10027 10025 10022 10019 10017 10013 10010 10010 10012 10014 10015 10017 10017 10016 10015 10014 10010 10007 10005 10003 10003 10003 10004 10006 10009 10010 10010 10010 10011 10013 10015 10014 10013 10014 10014 10015 10019 10021 10023 10026 10029 10031 10035 10037 10039 10042 10045 10048 10050 10051 10052 10055 10061 10066 10069 10073 10082 10092
10100 10096 10092 10088 10085 10083 10080 10076 10073 10070 10067 10063 10060 10057 10053 10051 10049 10046 10043 10041 10038 10035 10032 10029 10027 10024 10019 10014 10011 10008 10005 10002 10000 9997 9996 9998 9999 9999 10000 10000 10000 10000 10000 9996 9993 9992 9991 9990 9989 9988 9989 9992 9994 9994 9996 9997 9999 10000 9999 9999 9999 10000 10002 10005 10006 10006 10009 10012 10014 10018 10019 10020 10023 10026 10028 10031 10032 10033 10037 10043 10048 10052 10056 10063 10072
10086 10082 10078 10075 10072 10069 10066 10063 10060 10057 10054 10051 10048 10044 10040 10038 10035 10032 10030 10028 10025 10022 10019 10017 10015 10012 10007 10001 9998 9995 9992 9989 9987 9985 9985 9985 9985 9984 9985 9985 9984 9985 9986 9984 9981 9979 9978 9976 9976 9975 9975 9976 9978 9979 9981 9982 9983 9984 9984 9985 9986 9986 9988 9991 9991 9991 9994 9996 9998 10001 10001 10001 10004 10007 10009 10012 10015 10017 10021 10026 10031 10034 10039 10046 10053
10071 10068 10064 10061 10058 10056 10053 10050 10047 10044 10041 10038 10035 10032 10028 10025 10022 10019 10017 10015 10012 10010 10006 10004 10002 9999 9995 9990 9985 9982 9980 9977 9974 9973 9974 9974 9972 9970 9970 9970 9970 9971 9972 9972 9970 9968 9964 9962 9961 9961 9962 9962 9963 9964 9965 9965 9966 9968 9969 9970 9972 9973 9974 9975 9976 9977 9980 9981 9982 9984 9985 9983 9986 9990 9993 9995 9998 10001 10004 10008 10012 10017 10023 10030 10036
10058 10054 10050 10047 10044 10042 10039 10036 10033 10030 10027 10024 10022 10018 10015 10012 10008 10005 10003 10001 9999 9997 9994 9991 9990 9987 9983 9979 9974 9969 9967 9965 9963 9961 9962 9962 9959 9957 9957 9957 9957 9958 9959 9959 9959 9956 9952 9949 9948 9949 9949 9948 9949 9950 9950 9950 9951 9952 9953 9955 9956 9958 9960 9961 9962 9963 9966 9967 9967 9969 9970 9968 9969 9973 9976 9978 9981 9985 9987 9990 9995 10001 10006 10012 10019
10046 10041 10037 10034 10031 10029 10026 10022 10019 10016 10013 10011 10008 10005 10002 9999 9995 9992 9990 9988 9986 9984 9981 9979 9977 9975 9972 9968 9963 9959 9955 9953 9952 9951 9950 9949 9947 9944 9943 9943 9943 9945 9946 9947 9946 9944 9941 9938 9937 9936 9936 9936 9936 9937 9936 9935 9936 9937 9938 9940 9942 9944 9945 9947 9948 9950 9952 9953 9954 9955 9955 9954 9954 9957 9960 9962 9967 9970 9971 9974 9980 9985 9988 9994 10002
10034 10029 10025 10022 10019 10016 10013 10009 10006 10003 10000 9998 9995 9992 9989 9986 9983 9980 9977 9975 9974 9971 9969 9967 9964 9963 9960 9956 9952 9949 9944 9941 9940 9940 9939 9937 9935 9932 9930 9929 9930 9932 9934 9934 9933 9931 9929 9928 9926 9925 9925 9924 9924 9923 9922 9922 9921 9922 9923 9925 9928 9930 9931 9933 9935 9936 9938 9940 9941 9942 9941 9940 9940 9942 9944 9948 9952 9954 9955 9958 9965 9969 9971 9975 9985
10022 10018 10014 10011 10008 10004 10001 9998 9994 9991 9988 9985 9982 9980 9977 9974 9971 9968 9965 9964 9962 9959 9956 9954 9952 9950 9948 9944 9941 9939 9933 9929 9929 9929 9928 9926 9923 9921 9918 9916 9917 9919 9920 9921 9920 9918 9917 9917 9915 9913 9914 9913 9912 9910 9909 9909 9908 9908 9909 9911 9913 9915 9917 9919 9922 9923 9924 9927 9928 9928 9927 9927 9927 9929 9931 9934 9938 9938 9938 9942 9949 9954 9954 9958 9968
10010 10006 10003 10000 9996 9993 9990 9987 9984 9980 9976 9973 9970 9967 9965 9962 9959 9956 9953 9951 9950 9948 9945 9943 9940 9938 9936 9933 9930 9928 9923 9918 9916 9917 9916 9914 9912 9910 9907 9904 9905 9907 9907 9907 9907 9905 9905 9904 9902 9901 9901 9900 9899 9899 9898 9897 9896 9895 9896 9898 9899 9900 9902 9905 9907 9909 9912 9914 9915 9914 9913 9913 9915 9916 9918 9922 9924 9923 9922 9926 9932 9937 9940 9943 9951
9999 9995 9992 9989 9985 9982 9979 9976 9973 9969 9966 9962 9959 9956 9953 9950 9947 9945 9941 9938 9936 9934 9933 9931 9928 9927 9926 9922 9919 9917 9913 9908 9904 9903 9903 9902 9900 9898 9895 9893 9894 9895 9894 9894 9893 9893 9893 9892 9890 9889 9889 9887 9886 9886 9885 9885 9885 9884 9885 9886 9887 9888 9889 9890 9892 9895 9898 9899 9900 9900 9900 9901 9902 9903 9905 9908 9909 9908 9908 9911 9916 9921 9926 9929 9935
9987 9983 9980 9977 9975 9972 9968 9964 9962 9958 9955 9952 9949 9946 9942 9937 9933 9931 9930 9928 9924 9920 9918 9918 9917 9916 9915 9913 9909 9905 9902 9898 9894 9892 9890 9889 9886 9884 9882 9882 9883 9883 9882 9881 9881 9880 9881 9880 9878 9877 9876 9875 9874 9873 9872 9873 9873 9874 9874 9875 9876 9877 9878 9878 9879 9882 9883 9883 9885 9886 9887 9889 9891 9891 9892 9894 9895 9894 9894 9897 9901 9906 9911 9915 9919
9975 9971 9967 9965 9963 9960 9956 9953 9950 9946 9944 9941 9938 9935 9932 9927 9922 9916 9914 9913 9913 9909 9906 9904 9904 9905 9904 9902 9900 9896 9891 9887 9883 9881 9879 9877 9875 9872 9870 9869 9871 9871 9869 9869 9868 9868 9868 9868 9866 9865 9864 9863 9862 9861 9861 9861 9862 9863 9864 9864 9864 9865 9866 9867 9868 9869 9870 9870 9871 9872 9873 9875 9877 9879 9880 9880 9881 9881 9881 9883 9887 9892 9897 9901 9903
9962 9958 9955 9953 9951 9948 9944 9941 9938 9935 9932 9929 9926 9924 9921 9918 9913 9906 9900 9896 9895 9896 9895 9894 9893 9893 9892 9890 9889 9886 9882 9878 9873 9869 9867 9866 9864 9861 9859 9858 9860 9860 9858 9857 9856 9856 9856 9855 9854 9853 9852 9851 9850 9850 9850 9850 9852 9853 9853 9853 9852 9852 9853 9854 9856 9857 9857 9858 9859 9859 9860 9862 9864 9865 9866 9867 9868 9868 9868 9870 9874 9879 9884 9886 9888
9950 9946 9942 9940 9938 9936 9933 9930 9926 9923 9920 9917 9915 9912 9909 9906 9904 9899 9893 9886 9880 9878 9879 9881 9882 9883 9881 9879 9876 9874 9871 9868 9864 9860 9857 9855 9853 9851 9849 9848 9849 9849 9848 9846 9844 9844 9843 9842 9841 9841 9840 9840 9840 9839 9839 9839 9841 9842 9842 9842 9841 9840 9840 9841 9843 9844 9845 9845 9846 9848 9849 9850 9851 9853 9853 9854 9855 9856 9856 9858 9861 9865 9869 9872 9874
9939 9934 9930 9927 9925 9923 9921 9918 9915 9912 9909 9906 9903 9901 9898 9895 9892 9889 9885 9880 9873 9867 9863 9864 9866 9868 9869 9868 9866 9862 9859 9856 9853 9851 9848 9845 9843 9841 9839 9838 9838 9838 9838 9837 9835 9833 9832 9830 9828 9828 9829 9828 9828 9829 9829 9830 9831 9832 9832 9831 9830 9829 9828 9828 9829 9831 9832 9833 9834 9836 9837 9838 9839 9841 9841 9841 9842 9843 9844 9845 9848 9851 9855 9858 9861
9928 9923 9919 9916 9913 9910 9908 9906 9904 9901 9898 9895 9892 9889 9886 9883 9881 9878 9874 9870 9866 9861 9856 9852 9850 9851 9854 9856 9854 9851 9848 9846 9843 9840 9838 9836 9833 9832 9830 9828 9827 9827 9827 9826 9825 9824 9823 9821 9818 9817 9817 9817 9817 9818 9819 9820 9820 9821 9821 9820 9819 9818 9818 9817 9817 9818 9820 9821 9822 9823 9825 9825 9826 9828 9829 9830 9830 9831 9832 9834 9836 9838 9841 9844 9848
9917 9913 9909 9905 9903 9900 9897 9895 9893 9891 9887 9884 9881 9878 9875 9872 9869 9867 9863 9859 9856 9853 9849 9845 9841 9837 9838 9842 9841 9838 9836 9835 9834 9831 9828 9826 9824 9823 9821 9819 9817 9816 9815 9815 9814 9813 9813 9812 9810 9809 9808 9807 9807 9807 9808 9809 9810 9810 9810 9810 9809 9808 9807 9806 9806 9807 9808 9810 9811 9811 9813 9814 9814 9816 9817 9817 9818 9819 9821 9822 9824 9826 9828 9831 9835
9906 9903 9899 9896 9893 9891 9887 9885 9882 9880 9877 9874 9870 9867 9864 9860 9857 9854 9852 9849 9846 9843 9840 9837 9832 9827 9825 9827 9829 9827 9824 9823 9823 9822 9820 9817 9814 9813 9812 9811 9809 9806 9804 9803 9803 9802 9802 9802 9802 9801 9800 9800 9799 9799 9798 9799 9799 9800 9800 9799 9798 9798 9798 9797 9796 9796 9798 9799 9800 9800 9801 9802 9803 9804 9805 9806 9807 9808 9809 9811 9812 9814 9816 9819 9822
9895 9892 9888 9886 9883 9880 9877 9874 9871 9869 9866 9863 9860 9857 9854 9850 9846 9843 9841 9838 9836 9834 9831 9827 9823 9819 9816 9815 9815 9815 9813 9811 9811 9811 9812 9810 9807 9804 9802 9801 9800 9798 9795 9793 9792 9792 9792 9793 9793 9793 9792 9791 9790 9790 9790 9789 9790 9790 9790 9789 9789 9788 9788 9787 9787 9787 9788 9789 9790 9790 9790 9791 9792 9793 9794 9795 9796 9797 9798 9800 9801 9803 9805 9807 9810
9884 9880 9878 9875 9872 9869 9866 9863 9860 9858 9855 9851 9849 9846 9843 9840 9836 9832 9830 9829 9827 9824 9822 9818 9814 9811 9808 9805 9804 9803 9803 9801 9799 9799 9800 9801 9799 9796 9793 9791 9789 9788 9786 9784 9783 9782 9783 9784 9784 9784 9783 9782 9781 9780 9780 9780 9780 9780 9780 9780 9779 9778 9778 9777 9777 9777 9778 9780 9780 9780 9780 9781 9781 9782 9783 9784 9785 9786 9787 9789 9790 9792 9794 9796 9799
9872 9869 9867 9864 9861 9857 9854 9851 9849 9846 9843 9840 9838 9835 9832 9829 9826 9822 9820 9819 9817 9814 9812 9809 9805 9802 9799 9796 9794 9793 9792 9791 9790 9789 9789 9789 9789 9788 9786 9783 9780 9778 9777 9776 9775 9774 9775 9775 9775 9775 9775 9774 9773 9772 9771 9770 9770 9770 9770 9770 9769 9768 9767 9767 9768 9768 9768 9769 9770 9771 9771 9771 9772 9772 9773 9774 9775 9775 9777 9778 9780 9781 9783 9785 9787
9861 9858 9855 9853 9850 9846 9843 9840 9838 9835 9832 9829 9827 9824 9821 9818 9815 9813 9811 9809 9806 9804 9802 9799 9796 9793 9790 9788 9786 9783 9782 9781 9780 9779 9778 9778 9778 9778 9776 9774 9771 9769 9768 9767 9767 9767 9767 9767 9767 9767 9766 9765 9764 9763 9762 9761 9761 9761 9761 9760 9759 9758 9758 9758 9758 9758 9758 9759 9760 9761 9761 9762 9762 9763 9763 9764 9765 9765 9766 9768 9770 9771 9773 9775 9777
9849 9846 9843 9841 9838 9835 9832 9829 9826 9824 9822 9819 9816 9813 9811 9808 9805 9803 9801 9799 9796 9794 9792 9790 9787 9784 9781 9779 9777 9775 9773 9772 9771 9770 9769 9767 9767 9767 9766 9764 9762 9761 9759 9758 9758 9758 9758 9758 9759 9759 9757 9756 9754 9753 9753 9753 9752 9752 9752 9752 9750 9749 9748 9748 9749 9749 9749 9749 9749 9751 9751 9752 9753 9753 9753 9754 9755 9755 9756 9758 9760 9762 9763 9765 9767
9838 9835 9832 9829 9826 9824 9821 9819 9816 9813 9811 9808 9806 9803 9800 9797 9795 9793 9791 9789 9786 9784 9782 9780 9778 9775 9773 9770 9769 9767 9765 9764 9762 9761 9760 9758 9757 9756 9755 9754 9753 9752 9752 9751 9749 9748 9748 9748 9749 9750 9749 9746 9744 9743 9743 9744 9743 9743 9743 9743 9742 9741 9740 9739 9739 9740 9740 9740 9740 9741 9742 9742 9743 9743 9744 9745 9745 9746 9747 9748 9750 9752 9754 9756 9758
9827 9823 9820 9817 9815 9813 9810 9808 9806 9803 9800 9797 9795 9793 9790 9788 9786 9784 9781 9779 9777 9775 9773 9771 9769 9767 9764 9762 9760 9759 9757 9755 9754 9753 9751 9749 9748 9746 9745 9744 9744 9744 9744 9743 9742 9740 9739 9739 9739 9740 9739 9738 9736 9735 9734 9734 9734 9734 9734 9733 9733 9733 9732 9731 9731 9731 9730 9731 9731 9732 9732 9733 9734 9734 9735 9735 9736 9737 9738 9739 9740 9743 9745 9746 9748
9816 9812 9809 9806 9804 9801 9799 9798 9795 9792 9789 9786 9784 9782 9780 9778 9776 9774 9771 9769 9767 9766 9764 9762 9760 9758 9757 9754 9752 9751 9749 9748 9746 9745 9743 9742 9740 9738 9736 9736 9735 9735 9736 9735 9735 9733 9732 9731 9730 9731 9730 9729 9728 9727 9727 9726 9726 9725 9725 9724 9724 9723 9723 9723 9723 9723 9722 9722 9722 9723 9723 9724 9724 9725 9726 9727 9727 9728 9729 9730 9731 9733 9735 9737 9739
9804 9801 9798 9795 9793 9790 9788 9787 9784 9781 9779 9776 9773 9772 9770 9768 9766 9764 9762 9760 9758 9757 9755 9754 9752 9750 9748 9747 9745 9743 9741 9740 9739 9737 9735 9734 9732 9730 9729 9728 9728 9727 9727 9726 9726 9726 9725 9723 9723 9723 9722 9720 9719 9719 9719 9718 9718 9717 9717 9716 9715 9714 9714 9714 9714 9715 9714 9714 9714 9714 9715 9715 9716 9716 9717 9718 9718 9719 9720 9721 9723 9724 9726 9728 9730
9793 9790 9787 9785 9782 9780 9778 9776 9774 9771 9768 9766 9763 9762 9760 9759 9756 9754 9752 9751 9749 9748 9746 9745 9744 9742 9740 9739 9737 9735 9734 9733 9731 9730 9728 9726 9725 9723 9723 9722 9721 9720 9719 9718 9718 9718 9717 9716 9715 9715 9714 9712 9711 9710 9710 9710 9710 9709 9709 9708 9707 9706 9706 9706 9706 9706 9706 9706 9706 9706 9706 9707 9708 9708 9709 9709 9710 9711 9712 9713 9714 9716 9717 9719 9721
9782 9780 9777 9774 9772 9770 9768 9766 9764 9761 9758 9756 9754 9752 9751 9749 9747 9745 9743 9742 9740 9739 9738 9736 9735 9734 9732 9731 9729 9727 9726 9725 9724 9722 9721 9719 9718 9717 9717 9715 9714 9713 9711 9710 9710 9710 9710 9709 9708 9707 9706 9705 9703 9702 9702 9702 9702 9701 9701 9700 9699 9699 9698 9698 9698 9698 9698 9698 9698 9698 9698 9699 9699 9700 9701 9702 9702 9703 9704 9705 9706 9707 9709 9711 9713
9771 9769 9766 9764 9762 9760 9758 9756 9753 9751 9749 9746 9745 9743 9741 9739 9737 9736 9734 9733 9731 9730 9729 9728 9727 9725 9724 9723 9721 9720 9719 9717 9716 9714 9713 9712 9711 9711 9710 9708 9707 9706 9704 9703 9702 9702 9702 9701 9700 9700 9699 9698 9696 9695 9695 9694 9694 9694 9693 9692 9692 9692 9691 9691 9691 9691 9691 9691 9691 9690 9691 9691 9691 9692 9693 9694 9695 9696 9696 9697 9698 9700 9701 9703 9705
9761 9758 9756 9753 9751 9749 9747 9745 9743 9741 9739 9737 9736 9734 9732 9730 9729 9727 9726 9724 9723 9722 9721 9719 9718 9717 9716 9715 9714 9713 9711 9710 9708 9707 9706 9705 9705 9704 9703 9701 9700 9698 9697 9696 9695 9694 9694 9694 9693 9692 9692 9691 9689 9688 9687 9687 9686 9686 9686 9685 9685 9684 9684 9684 9684 9684 9683 9683 9683 9683 9683 9684 9684 9685 9686 9686 9687 9688 9689 9690 9691 9692 9693 9695 9697